Regional Weather Roundup
Issued by NWS

Home | Current Version | Previous Version | Graphics & Text | Print | Product List | Glossary On
Versions: 1 2 3 4 5 6 7 8 9 10 11 12 13 14 15 16 17 18 19 20 21 22 23 24 25 26 27 28 29 30 31 32 33 34 35 36 37 38 39 40 41 42 43 44 45 46 47 48 49 50
000
ASUS45 KBOI 280810
RWRID

IDAHO REGIONAL WEATHER ROUNDUP
NATIONAL WEATHER SERVICE BOISE ID
200 AM MDT THU MAY 28 2015

NOTE: "FAIR" INDICATES FEW OR NO CLOUDS BELOW 12000 FEET
WITH NO SIGNIFICANT WEATHER AND/OR OBSTRUCTIONS TO VISIBILITY

IDZ012-014-280900-
SOUTHWEST IDAHO


CITY           SKY/WX    TMP DP  RH WIND       PRES   REMARKS
BOISE          CLEAR     56  44  64 SE6       30.03R
CALDWELL       CLEAR     55  39  54 NW6       30.04R
MOUNTAIN HOME  PTCLDY    53  41  64 NW5       30.03R
$$

IDZ016-017-280900-
SOUTHCENTRAL IDAHO


CITY           SKY/WX    TMP DP  RH WIND       PRES   REMARKS
BURLEY         PTCLDY    54  44  69 S15       30.05S
JEROME         PTCLDY    53  44  71 S3        30.06S
TWIN FALLS     PTCLDY    54  44  69 S13       30.03F
$$

IDZ019>023-280900-
SOUTHEAST IDAHO


CITY           SKY/WX    TMP DP  RH WIND       PRES   REMARKS
IDAHO FALLS    CLOUDY    49  47  93 N3        30.10S
POCATELLO      PTCLDY    49  48  97 E3        30.09F
REXBURG        LGT RAIN  49  46  90 SW7       30.10S
$$

IDZ006-010-011-018-031-032-280900-
CENTRAL IDAHO MOUNTAINS


CITY           SKY/WX    TMP DP  RH WIND       PRES   REMARKS
MCCALL           N/A     45  40  82 NW3       30.09S
HAILEY         CLEAR     43  41  93 NW6       30.11F
STANLEY          N/A     37  35  92 CALM      30.15S
SALMON         CLOUDY    48  46  93 CALM      30.08S
CHALLIS        PTCLDY    42  38  85 SE3       30.10S
$$

IDZ002-004-006-007-026-280900-
NORTHERN IDAHO


CITY           SKY/WX    TMP DP  RH WIND       PRES   REMARKS
LEWISTON       CLEAR     56  50  80 MISG      30.01S
LOWELL           N/A     51  49  92 CALM      30.10R
COEUR D`ALENE  CLEAR     57  48  72 S9        30.01S
MULLAN PASS    PTCLDY    44  41  89 NW5       30.12S
$$


USA.gov is the U.S. government's official web portal to all federal, state and local government web resources and services.